Time,TemperatureF,DewpointF,PressureIn,WindDirection,WindDirectionDegrees,WindSpeedMPH,WindSpeedGustMPH,Humidity,HourlyPrecipIn,Conditions,Clouds,dailyrainin,SoftwareType,DateUTC
2013-12-18 06:21:00,16.3,16.1,29.83,SW,225,0.0,-999.0,99,-99.99,,,0.00,Acu-Link.com,2013-12-18 11:21:00,
2013-12-18 07:12:00,14.9,14.7,29.83,North,0,0.0,-999.0,99,-99.99,,,0.00,Acu-Link.com,2013-12-18 12:12:00,
2013-12-18 07:27:00,15.1,14.9,29.86,ESE,112,0.0,-999.0,99,-99.99,,,0.00,Acu-Link.com,2013-12-18 12:27:00,
2013-12-18 07:42:00,14.9,14.7,29.86,SSE,157,0.0,-999.0,99,-99.99,,,0.00,Acu-Link.com,2013-12-18 12:42:00,
2013-12-18 07:57:00,15.3,15.0,29.86,East,90,0.0,-999.0,99,-99.99,,,0.00,Acu-Link.com,2013-12-18 12:57:00,
2013-12-18 08:12:00,15.3,14.8,29.87,East,90,0.0,-999.0,98,-99.99,,,0.00,Acu-Link.com,2013-12-18 13:12:00,
2013-12-18 08:27:00,17.2,17.0,29.87,South,180,0.0,-999.0,99,-99.99,,,0.00,Acu-Link.com,2013-12-18 13:27:00,
2013-12-18 08:42:00,19.8,19.3,29.88,ESE,112,0.0,-999.0,98,-99.99,,,0.00,Acu-Link.com,2013-12-18 13:42:00,
2013-12-18 08:57:00,23.9,22.9,29.88,ESE,112,0.0,-999.0,96,-99.99,,,0.00,Acu-Link.com,2013-12-18 13:57:00,
2013-12-18 09:12:00,29.8,24.4,29.89,ESE,112,0.0,-999.0,80,-99.99,,,0.00,Acu-Link.com,2013-12-18 14:12:00,
2013-12-18 09:27:00,33.8,24.4,29.89,South,180,0.0,-999.0,68,-99.99,,,0.00,Acu-Link.com,2013-12-18 14:27:00,
2013-12-18 09:42:00,34.3,24.2,29.89,ENE,67,0.0,-999.0,66,-99.99,,,0.00,Acu-Link.com,2013-12-18 14:42:00,
2013-12-18 09:57:00,35.6,25.4,29.89,SSE,157,1.1,-999.0,66,-99.99,,,0.00,Acu-Link.com,2013-12-18 14:57:00,
2013-12-18 10:13:00,38.7,26.0,29.89,ESE,112,0.0,-999.0,60,-99.99,,,0.00,Acu-Link.com,2013-12-18 15:13:00,
2013-12-18 10:28:00,38.1,26.3,29.89,NNE,22,2.2,-999.0,62,-99.99,,,0.00,Acu-Link.com,2013-12-18 15:28:00,
2013-12-18 10:43:00,39.0,25.9,29.89,ESE,112,1.6,-999.0,59,-99.99,,,0.00,Acu-Link.com,2013-12-18 15:43:00,
2013-12-18 10:58:00,40.8,25.5,29.89,WSW,247,4.7,-999.0,54,-99.99,,,0.01,Acu-Link.com,2013-12-18 15:58:00,
2013-12-18 11:13:00,41.2,25.4,29.89,West,270,3.1,-999.0,53,-99.99,,,0.01,Acu-Link.com,2013-12-18 16:13:00,
2013-12-18 11:28:00,41.9,26.0,29.88,East,90,1.6,-999.0,53,-99.99,,,0.01,Acu-Link.com,2013-12-18 16:28:00,
2013-12-18 11:43:00,42.1,26.2,29.88,East,90,2.2,-999.0,53,-99.99,,,0.01,Acu-Link.com,2013-12-18 16:43:00,
2013-12-18 11:58:00,37.6,24.6,29.88,WSW,247,2.2,-999.0,59,-99.99,,,0.01,Acu-Link.com,2013-12-18 16:58:00,
2013-12-18 12:13:00,37.4,24.8,29.88,NNE,22,2.7,-999.0,60,-99.99,,,0.01,Acu-Link.com,2013-12-18 17:13:00,
2013-12-18 12:28:00,38.1,25.1,29.88,South,180,2.7,-999.0,59,-99.99,,,0.02,Acu-Link.com,2013-12-18 17:28:00,
2013-12-18 12:43:00,38.1,24.7,29.88,ESE,112,2.2,-999.0,58,-99.99,,,0.05,Acu-Link.com,2013-12-18 17:43:00,
2013-12-18 12:58:00,38.5,25.8,29.87,North,0,2.2,-999.0,60,-99.99,,,0.09,Acu-Link.com,2013-12-18 17:58:00,
2013-12-18 13:13:00,39.2,24.8,29.87,ENE,67,2.7,-999.0,56,-99.99,,,0.17,Acu-Link.com,2013-12-18 18:13:00,
2013-12-18 13:28:00,38.3,24.0,29.87,NNE,22,2.2,-999.0,56,-99.99,,,0.21,Acu-Link.com,2013-12-18 18:28:00,
2013-12-18 13:43:00,38.3,23.6,29.88,SSW,202,2.7,-999.0,55,-99.99,,,0.22,Acu-Link.com,2013-12-18 18:43:00,
2013-12-18 13:58:00,39.6,23.4,29.88,West,270,2.2,-999.0,52,-99.99,,,0.24,Acu-Link.com,2013-12-18 18:58:00,
2013-12-18 16:35:00,32.9,22.1,29.94,SE,135,0.0,-999.0,64,-99.99,,,0.26,Acu-Link.com,2013-12-18 21:35:00,
2013-12-18 16:50:00,32.2,22.1,29.94,South,180,0.0,-999.0,66,-99.99,,,0.26,Acu-Link.com,2013-12-18 21:50:00,
2013-12-18 17:05:00,31.6,21.6,29.95,West,270,1.6,-999.0,66,-99.99,,,0.26,Acu-Link.com,2013-12-18 22:05:00,
2013-12-18 17:20:00,31.5,21.4,29.96,West,270,2.7,-999.0,66,-99.99,,,0.26,Acu-Link.com,2013-12-18 22:20:00,
2013-12-18 17:35:00,30.6,21.3,29.96,SSW,202,2.7,-999.0,68,-99.99,,,0.26,Acu-Link.com,2013-12-18 22:35:00,
2013-12-18 17:50:00,29.7,21.8,29.96,WSW,247,0.0,-999.0,72,-99.99,,,0.26,Acu-Link.com,2013-12-18 22:50:00,
2013-12-18 18:05:00,29.5,21.3,29.96,SW,225,0.0,-999.0,71,-99.99,,,0.26,Acu-Link.com,2013-12-18 23:05:00,
2013-12-18 18:20:00,29.3,21.4,29.97,NW,315,1.6,-999.0,72,-99.99,,,0.26,Acu-Link.com,2013-12-18 23:20:00,
2013-12-18 18:35:00,28.8,21.2,29.97,SE,135,2.7,-999.0,73,-99.99,,,0.26,Acu-Link.com,2013-12-18 23:35:00,
2013-12-18 18:50:00,28.2,21.0,29.97,ESE,112,0.0,-999.0,74,-99.99,,,0.26,Acu-Link.com,2013-12-18 23:50:00,
2013-12-18 19:05:00,27.1,20.9,29.98,West,270,0.0,-999.0,77,-99.99,,,0.26,Acu-Link.com,2013-12-19 00:05:00,
2013-12-18 19:20:00,26.1,21.0,29.99,SSE,157,0.0,-999.0,81,-99.99,,,0.26,Acu-Link.com,2013-12-19 00:20:00,
2013-12-18 19:35:00,25.5,20.8,29.99,ESE,112,0.0,-999.0,82,-99.99,,,0.26,Acu-Link.com,2013-12-19 00:35:00,
2013-12-18 19:50:00,26.8,21.5,29.99,WSW,247,1.6,-999.0,80,-99.99,,,0.26,Acu-Link.com,2013-12-19 00:50:00,
2013-12-18 20:05:00,27.3,21.1,29.99,West,270,1.6,-999.0,77,-99.99,,,0.26,Acu-Link.com,2013-12-19 01:05:00,
2013-12-18 20:20:00,27.7,21.4,30.00,South,180,2.2,-999.0,77,-99.99,,,0.26,Acu-Link.com,2013-12-19 01:20:00,
2013-12-18 20:35:00,28.4,21.5,30.00,NNW,337,1.1,-999.0,75,-99.99,,,0.26,Acu-Link.com,2013-12-19 01:35:00,
2013-12-18 20:50:00,27.7,21.1,30.00,WSW,247,0.0,-999.0,76,-99.99,,,0.26,Acu-Link.com,2013-12-19 01:50:00,